Year,Month,Day,Hour,Minute,Value (Times are PST for temperature in C)
2020,01,30,00,00,2.60
2020,01,30,00,01,2.60
2020,01,30,00,02,2.60
2020,01,30,00,03,2.50
2020,01,30,00,04,2.50
2020,01,30,00,05,2.50
2020,01,30,00,06,2.50
2020,01,30,00,07,2.50
2020,01,30,00,08,2.50
2020,01,30,00,09,2.50
2020,01,30,00,10,2.40
2020,01,30,00,11,2.40
2020,01,30,00,12,2.30
2020,01,30,00,13,2.30
2020,01,30,00,14,2.30
2020,01,30,00,15,2.20
2020,01,30,00,16,2.20
2020,01,30,00,17,2.20
2020,01,30,00,18,2.10
2020,01,30,00,19,2.10
2020,01,30,00,20,2.10
2020,01,30,00,21,2.10
2020,01,30,00,22,2.10
2020,01,30,00,23,2.10
2020,01,30,00,24,2.10
2020,01,30,00,25,2.10
2020,01,30,00,26,2.10
2020,01,30,00,27,2.10
2020,01,30,00,28,2.10
2020,01,30,00,29,2.10
2020,01,30,00,30,2.10
2020,01,30,00,31,2.00
2020,01,30,00,32,2.00
2020,01,30,00,33,2.00
2020,01,30,00,34,2.00
2020,01,30,00,35,2.00
2020,01,30,00,36,2.00
2020,01,30,00,37,2.00
2020,01,30,00,38,2.00
2020,01,30,00,39,2.00
2020,01,30,00,40,2.00
2020,01,30,00,41,2.00
2020,01,30,00,42,2.00
2020,01,30,00,43,2.00
2020,01,30,00,44,2.00
2020,01,30,00,45,2.00
2020,01,30,00,46,1.90
2020,01,30,00,47,1.90
2020,01,30,00,48,1.90
2020,01,30,00,49,1.90
2020,01,30,00,50,1.90
2020,01,30,00,51,1.90
2020,01,30,00,52,1.90
2020,01,30,00,53,1.90
2020,01,30,00,54,1.90
2020,01,30,00,55,1.90
2020,01,30,00,56,1.90
2020,01,30,00,57,1.90
2020,01,30,00,58,1.90
2020,01,30,00,59,1.80
2020,01,30,01,00,1.80
2020,01,30,01,01,1.80
2020,01,30,01,02,1.80
2020,01,30,01,03,1.80
2020,01,30,01,04,1.80
2020,01,30,01,05,1.80
2020,01,30,01,06,1.80
2020,01,30,01,07,1.80
2020,01,30,01,08,1.80
2020,01,30,01,09,1.80
2020,01,30,01,10,1.80
2020,01,30,01,11,1.80
2020,01,30,01,12,1.80
2020,01,30,01,13,1.70
2020,01,30,01,14,1.70
2020,01,30,01,15,1.70
2020,01,30,01,16,1.70
2020,01,30,01,17,1.70
2020,01,30,01,18,1.70
2020,01,30,01,19,1.70
2020,01,30,01,20,1.70
2020,01,30,01,21,1.80
2020,01,30,01,22,1.80
2020,01,30,01,23,1.80
2020,01,30,01,24,1.80
2020,01,30,01,25,1.80
2020,01,30,01,26,1.80
2020,01,30,01,27,1.80
2020,01,30,01,28,1.80
2020,01,30,01,29,1.80
2020,01,30,01,30,1.80
2020,01,30,01,31,1.80
2020,01,30,01,32,1.80
2020,01,30,01,33,1.80
2020,01,30,01,34,1.80
2020,01,30,01,35,1.80
2020,01,30,01,36,1.80
2020,01,30,01,37,1.70
2020,01,30,01,38,1.70
2020,01,30,01,39,1.80
2020,01,30,01,40,1.70
2020,01,30,01,41,1.70
2020,01,30,01,42,1.70
2020,01,30,01,43,1.80
2020,01,30,01,44,1.80
2020,01,30,01,45,1.80
2020,01,30,01,46,1.80
2020,01,30,01,47,1.80
2020,01,30,01,48,1.80
2020,01,30,01,49,1.80
2020,01,30,01,50,1.80
2020,01,30,01,51,1.80
2020,01,30,01,52,1.80
2020,01,30,01,53,1.80
2020,01,30,01,54,1.80
2020,01,30,01,55,1.80
2020,01,30,01,56,1.80
2020,01,30,01,57,1.80
2020,01,30,01,58,1.80
2020,01,30,01,59,1.80
2020,01,30,02,00,1.80
2020,01,30,02,01,1.80
2020,01,30,02,02,1.80
2020,01,30,02,03,1.80
2020,01,30,02,04,1.80
2020,01,30,02,05,1.90
2020,01,30,02,06,1.90
2020,01,30,02,07,1.90
2020,01,30,02,08,1.90
2020,01,30,02,09,1.90
2020,01,30,02,10,1.90
2020,01,30,02,11,1.90
2020,01,30,02,12,1.90
2020,01,30,02,13,1.90
2020,01,30,02,14,1.90
2020,01,30,02,15,1.90
2020,01,30,02,16,1.90
2020,01,30,02,17,1.90
2020,01,30,02,18,1.90
2020,01,30,02,19,1.90
2020,01,30,02,20,1.90
2020,01,30,02,21,1.90
2020,01,30,02,22,1.90
2020,01,30,02,23,1.90
2020,01,30,02,24,1.90
2020,01,30,02,25,1.90
2020,01,30,02,26,1.90
2020,01,30,02,27,1.90
2020,01,30,02,28,1.90
2020,01,30,02,29,1.90
2020,01,30,02,30,2.00
2020,01,30,02,31,2.00
2020,01,30,02,32,2.00
2020,01,30,02,33,2.10
2020,01,30,02,34,2.10
2020,01,30,02,35,2.20
2020,01,30,02,36,2.30
2020,01,30,02,37,2.30
2020,01,30,02,38,2.40
2020,01,30,02,39,2.40
2020,01,30,02,40,2.50
2020,01,30,02,41,2.50
2020,01,30,02,42,2.60
2020,01,30,02,43,2.60
2020,01,30,02,44,2.70
2020,01,30,02,45,2.70
2020,01,30,02,46,2.80
2020,01,30,02,47,2.80
2020,01,30,02,48,2.80
2020,01,30,02,49,2.80
2020,01,30,02,50,2.80
2020,01,30,02,51,2.80
2020,01,30,02,52,2.80
2020,01,30,02,53,2.80
2020,01,30,02,54,2.80
2020,01,30,02,55,2.80
2020,01,30,02,56,2.80
2020,01,30,02,57,2.80
2020,01,30,02,58,2.70
2020,01,30,02,59,2.70
2020,01,30,03,00,2.70
2020,01,30,03,01,2.70
2020,01,30,03,02,2.70
2020,01,30,03,03,2.70
2020,01,30,03,04,2.70
2020,01,30,03,05,2.70
2020,01,30,03,06,2.70
2020,01,30,03,07,2.70
2020,01,30,03,08,2.70
2020,01,30,03,09,2.70
2020,01,30,03,10,2.70
2020,01,30,03,11,2.70
2020,01,30,03,12,2.70
2020,01,30,03,13,2.70
2020,01,30,03,14,2.70
2020,01,30,03,15,2.70
2020,01,30,03,16,2.70
2020,01,30,03,17,2.60
2020,01,30,03,18,2.60
2020,01,30,03,19,2.60
2020,01,30,03,20,2.60
2020,01,30,03,21,2.60
2020,01,30,03,22,2.60
2020,01,30,03,23,2.60
2020,01,30,03,24,2.60
2020,01,30,03,25,2.60
2020,01,30,03,26,2.70
2020,01,30,03,27,2.70
2020,01,30,03,28,2.70
2020,01,30,03,29,2.70
2020,01,30,03,30,2.70
2020,01,30,03,31,2.70
2020,01,30,03,32,2.80
2020,01,30,03,33,2.80
2020,01,30,03,34,2.80
2020,01,30,03,35,2.80
2020,01,30,03,36,2.80
2020,01,30,03,37,2.80
2020,01,30,03,38,2.80
2020,01,30,03,39,2.80
2020,01,30,03,40,2.80
2020,01,30,03,41,2.80
2020,01,30,03,42,2.80
2020,01,30,03,43,2.80
2020,01,30,03,44,2.80
2020,01,30,03,45,2.80
2020,01,30,03,46,2.80
2020,01,30,03,47,2.80
2020,01,30,03,48,2.90
2020,01,30,03,49,2.80
2020,01,30,03,50,2.90
2020,01,30,03,51,2.90
2020,01,30,03,52,2.90
2020,01,30,03,53,2.80
2020,01,30,03,54,2.80
2020,01,30,03,55,2.90
2020,01,30,03,56,2.90
2020,01,30,03,57,2.90
2020,01,30,03,58,2.90
2020,01,30,03,59,3.00
2020,01,30,04,00,3.00
2020,01,30,04,01,3.10
2020,01,30,04,02,3.10
2020,01,30,04,03,3.10
2020,01,30,04,04,3.10
2020,01,30,04,05,3.20
2020,01,30,04,06,3.20
2020,01,30,04,07,3.20
2020,01,30,04,08,3.30
2020,01,30,04,09,3.30
2020,01,30,04,10,3.30
2020,01,30,04,11,3.30
2020,01,30,04,12,3.30
2020,01,30,04,13,3.30
2020,01,30,04,14,3.30
2020,01,30,04,15,3.40
2020,01,30,04,16,3.40
2020,01,30,04,17,3.40
2020,01,30,04,18,3.40
2020,01,30,04,19,3.40
2020,01,30,04,20,3.40
2020,01,30,04,21,3.40
2020,01,30,04,22,3.40
2020,01,30,04,23,3.40
2020,01,30,04,24,3.40
2020,01,30,04,25,3.40
2020,01,30,04,26,3.40
2020,01,30,04,27,3.40
2020,01,30,04,28,3.50
2020,01,30,04,29,3.50
2020,01,30,04,30,3.50
2020,01,30,04,31,3.50
2020,01,30,04,32,3.60
2020,01,30,04,33,3.60
2020,01,30,04,34,3.60
2020,01,30,04,35,3.60
2020,01,30,04,36,3.60
2020,01,30,04,37,3.60
2020,01,30,04,38,3.60
2020,01,30,04,39,3.70
2020,01,30,04,40,3.70
2020,01,30,04,41,3.70
2020,01,30,04,42,3.70
2020,01,30,04,43,3.70
2020,01,30,04,44,3.70
2020,01,30,04,45,3.70
2020,01,30,04,46,3.70
2020,01,30,04,47,3.70
2020,01,30,04,48,3.70
2020,01,30,04,49,3.80
2020,01,30,04,50,3.80
2020,01,30,04,51,3.80
2020,01,30,04,52,3.80
2020,01,30,04,53,3.90
2020,01,30,04,54,3.90
2020,01,30,04,55,3.90
2020,01,30,04,56,3.90
2020,01,30,04,57,4.00
2020,01,30,04,58,4.00
2020,01,30,04,59,4.00
2020,01,30,05,00,4.10
2020,01,30,05,01,4.10
2020,01,30,05,02,4.20
2020,01,30,05,03,4.20
2020,01,30,05,04,4.20
2020,01,30,05,05,4.30
2020,01,30,05,06,4.30
2020,01,30,05,07,4.40
2020,01,30,05,08,4.40
2020,01,30,05,09,4.40
2020,01,30,05,10,4.50
2020,01,30,05,11,4.60
2020,01,30,05,12,4.60
2020,01,30,05,13,4.60
2020,01,30,05,14,4.70
2020,01,30,05,15,4.70
2020,01,30,05,16,4.70
2020,01,30,05,17,4.80
2020,01,30,05,18,4.80
2020,01,30,05,19,4.80
2020,01,30,05,20,4.90
2020,01,30,05,21,4.90
2020,01,30,05,22,4.90
2020,01,30,05,23,5.00
2020,01,30,05,24,5.00
2020,01,30,05,25,5.00
2020,01,30,05,26,5.10
2020,01,30,05,27,5.10
2020,01,30,05,28,5.10
2020,01,30,05,29,5.10
2020,01,30,05,30,5.10
2020,01,30,05,31,5.20
2020,01,30,05,32,5.20
2020,01,30,05,33,5.20
2020,01,30,05,34,5.20
2020,01,30,05,35,5.30
2020,01,30,05,36,5.30
2020,01,30,05,37,5.30
2020,01,30,05,38,5.30
2020,01,30,05,39,5.40
2020,01,30,05,40,5.40
2020,01,30,05,41,5.40
2020,01,30,05,42,5.40
2020,01,30,05,43,5.40
2020,01,30,05,44,5.40
2020,01,30,05,45,5.50
2020,01,30,05,46,5.50
2020,01,30,05,47,5.50
2020,01,30,05,48,5.50
2020,01,30,05,49,5.50
2020,01,30,05,50,5.50
2020,01,30,05,51,5.50
2020,01,30,05,52,5.50
2020,01,30,05,53,5.60
2020,01,30,05,54,5.60
2020,01,30,05,55,5.60
2020,01,30,05,56,5.60
2020,01,30,05,57,5.60
2020,01,30,05,58,5.60
2020,01,30,05,59,5.70
2020,01,30,06,00,5.70
2020,01,30,06,01,5.70
2020,01,30,06,02,5.70
2020,01,30,06,03,5.70
2020,01,30,06,04,5.70
2020,01,30,06,05,5.70
2020,01,30,06,06,5.70
2020,01,30,06,07,5.70
2020,01,30,06,08,5.70
2020,01,30,06,09,5.70
2020,01,30,06,10,5.70
2020,01,30,06,11,5.70
2020,01,30,06,12,5.70
2020,01,30,06,13,5.70
2020,01,30,06,14,5.70
2020,01,30,06,15,5.70
2020,01,30,06,16,5.70
2020,01,30,06,17,5.70
2020,01,30,06,18,5.70
2020,01,30,06,19,5.70
2020,01,30,06,20,5.70
2020,01,30,06,21,5.70
2020,01,30,06,22,5.70
2020,01,30,06,23,5.70
2020,01,30,06,24,5.70
2020,01,30,06,25,5.70
2020,01,30,06,26,5.70
2020,01,30,06,27,5.70
2020,01,30,06,28,5.70
2020,01,30,06,29,5.70
2020,01,30,06,30,5.70
2020,01,30,06,31,5.70
2020,01,30,06,32,5.70
2020,01,30,06,33,5.70
2020,01,30,06,34,5.60
2020,01,30,06,35,5.60
2020,01,30,06,36,5.60
2020,01,30,06,37,5.60
2020,01,30,06,38,5.60
2020,01,30,06,39,5.60
2020,01,30,06,40,5.60
2020,01,30,06,41,5.60
2020,01,30,06,42,5.60
2020,01,30,06,43,5.60
2020,01,30,06,44,5.60
2020,01,30,06,45,5.60
2020,01,30,06,46,5.60
